User: anonymous   Login
Location: CNYAC Observatory
(43.2150°N, 74.9500°W)
Time: 20:49:47
(UTC-04:00)
Language:

Cosmos 1300 Rocket - Orbit

View from above orbital plane
View from above orbital plane
View from above satellite
View from above satellite

Ground track
Ground track

The orbit data is extracted from the following two-line orbital elements,

1 12786U 81082B   17295.30901214 +.00000119 +00000-0 +11151-4 0  9991
2 12786 082.4915 207.8901 0017183 190.4478 169.6384 14.84702775932573
Epoch (UTC): 22 October 2017 07:24:58
Eccentricity: 0.0017183
inclination: 82.4915°
perigee height: 602 km
apogee height: 626 km
right ascension of ascending node: 207.8901°
argument of perigee: 190.4478°
revolutions per day: 14.84702775
mean anomaly at epoch: 169.6384°
orbit number at epoch: 93257

The dashed part of the orbit path shows where the satellite is in the earth's shadow,  

DLR